Estación de Los Colihues

Ultimos registro cada 15 minutos 50
Estación Fecha / Hora Temperatura Humedad Lluvia Velocidad Dirección Radiación Presion
50 Los Colihues 05-09-2026 12:15 16,6 46,1 0 1 212 701,9 1009,1
49 Los Colihues 05-09-2026 12:00 15,9 47,9 0 1,5 237 691,9 1009,3
48 Los Colihues 05-09-2026 11:45 15,2 50,5 0 1 223 680,6 1009,4
47 Los Colihues 05-09-2026 11:30 14,5 52,3 0 1,5 215 661,9 1009,4
46 Los Colihues 05-09-2026 11:15 14,3 54,3 0 1 213 641,9 1009,2
45 Los Colihues 05-09-2026 11:00 13,5 55,3 0 1 223 619,4 1009,8
44 Los Colihues 05-09-2026 10:45 13 57,8 0 1 230 533,1 1009,9
43 Los Colihues 05-09-2026 10:30 12,4 60,9 0 1 237 564,4 1010
42 Los Colihues 05-09-2026 10:15 11,7 64,8 0 1 208 531,9 1010,4
41 Los Colihues 05-09-2026 10:00 11,1 71,1 0 1 219 496,9 1010,5
40 Los Colihues 05-09-2026 09:45 10,3 70,5 0 1 201 458,1 1010,4
39 Los Colihues 05-09-2026 09:30 9,5 73 0 1 205 418,1 1010,9
38 Los Colihues 05-09-2026 09:15 9 74,6 0 1 212 375,6 1011,1
37 Los Colihues 05-09-2026 09:00 8,5 78,6 0 0,5 220 331,9 1011,3
36 Los Colihues 05-09-2026 08:45 8,2 81,5 0 0,5 204 286,9 1011,2
35 Los Colihues 05-09-2026 08:30 7,3 83,4 0 0,5 205 241,9 1011,3
34 Los Colihues 05-09-2026 08:15 7,2 85,1 0 0 208 208,1 1011,5
33 Los Colihues 05-09-2026 08:00 6,4 86,8 0 0 213 166,9 1011,5
32 Los Colihues 05-09-2026 07:45 5,9 89,7 0 0 230 121,9 1011,7
31 Los Colihues 05-09-2026 07:30 4,7 95,2 0 0 233 65,6 1011,8
30 Los Colihues 05-09-2026 07:15 3,5 97,7 0 0 233 10,6 1012,3
29 Los Colihues 05-09-2026 07:00 3,1 97 0 0 233 3,1 1012,3
28 Los Colihues 05-09-2026 06:45 3,6 96,6 0 0 233 0,6 1012,2
27 Los Colihues 05-09-2026 06:30 4 96,6 0 0 229 0,6 1012,4
26 Los Colihues 05-09-2026 06:15 4 96,4 0 0 209 0,6 1012,6
25 Los Colihues 05-09-2026 06:00 4,2 95,7 0 0 213 0,6 1012,5
24 Los Colihues 05-09-2026 05:45 4,5 95,5 0 0 215 0,6 1012,7
23 Los Colihues 05-09-2026 05:30 4,5 95,6 0 0 219 0,6 1012,5
22 Los Colihues 05-09-2026 05:15 4,6 95,2 0 0 199 0,6 1012,6
21 Los Colihues 05-09-2026 05:00 4,7 94,7 0 0 212 0,6 1012,6
20 Los Colihues 05-09-2026 04:45 4,9 94,3 0 0 241 0,6 1012,7
19 Los Colihues 05-09-2026 04:30 5,1 93,4 0 0 244 0,6 1012,5
18 Los Colihues 05-09-2026 04:15 5,2 93,1 0 0 246 0,6 1012,8
17 Los Colihues 05-09-2026 04:00 5,2 93 0 0 230 0,6 1012,7
16 Los Colihues 05-09-2026 03:45 5,3 92,4 0 0 198 0,6 1013,2
15 Los Colihues 05-09-2026 03:30 5,5 91,5 0 0 198 0,6 1013,4
14 Los Colihues 05-09-2026 03:15 5,8 91 0 0 198 0,6 1013,6
13 Los Colihues 05-09-2026 03:00 5,9 90,3 0 0 205 0,6 1013,9
12 Los Colihues 05-09-2026 02:45 6,2 89,3 0 0,5 191 0,6 1014
11 Los Colihues 05-09-2026 02:30 6,2 89,2 0 0,5 195 0,6 1014,3
10 Los Colihues 05-09-2026 02:15 6,3 88,8 0 0,5 194 0,6 1014,4
9 Los Colihues 05-09-2026 02:00 6,5 88,1 0 0,5 194 0,6 1014,6
8 Los Colihues 05-09-2026 01:45 6,2 88,5 0 0 192 0,6 1014,9
7 Los Colihues 05-09-2026 01:30 6,1 89 0 0 206 0,6 1014,9
6 Los Colihues 05-09-2026 01:15 6,3 87,8 0 0 197 0,6 1015,1
5 Los Colihues 05-09-2026 01:00 6,6 86,6 0 0 194 0,6 1015,2
4 Los Colihues 05-09-2026 00:45 6,6 86,4 0 0 205 0,6 1015,2
3 Los Colihues 05-09-2026 00:30 6,7 85,6 0 0 204 0,6 1015,5
2 Los Colihues 05-09-2026 00:15 7 84,1 0 0,5 201 0,6 1015,5
1 Los Colihues 05-09-2026 00:00 7,4 82,2 0 1 199 0,6 1015,8